Location: Unspecified
(49.3147°N, 0.0000°E)
Time: 03:26:29
(UTC+00:00)

CZ-11 R/B - Visible Passes

Search period start: 04 April 2026 00:00
Search period end: 14 April 2026 00:00
Orbit: 525 x 1043 km, 98.2° (Epoch: 29 March)

Date Brightness Start Highest point End Pass type
(mag) Time Alt. Az. Time Alt. Az. Time Alt. Az.
4 Apr ? 03:20:14 10° NE 03:23:54 15° E 03:27:34 10° ESE visible
5 Apr ? 04:26:38 10° NNE 04:32:53 46° E 04:39:02 10° S visible
6 Apr ? 03:55:48 10° NNE 04:01:20 28° E 04:06:46 10° SSE visible
7 Apr ? 03:25:31 10° NE 03:29:37 17° E 03:33:38 10° ESE visible
8 Apr ? 04:32:10 10° NNE 04:38:33 50° E 04:44:42 10° S visible
9 Apr ? 04:01:18 10° NNE 04:07:00 31° E 04:12:32 10° SSE visible
10 Apr ? 03:30:53 10° NE 03:35:17 19° E 03:39:35 10° SE visible
11 Apr ? 03:02:25 10° ENE 03:03:23 10° ENE 03:04:19 10° E visible
11 Apr ? 04:37:44 10° NNE 04:44:11 55° E 04:50:16 10° S visible
12 Apr ? 04:06:48 10° NNE 04:12:39 33° E 04:18:11 10° SSE visible
13 Apr ? 03:36:17 10° NE 03:40:56 20° E 03:45:23 10° SE visible
